CAPE
97 109 27 24 128 240 23 7 1 0 36 13 1 6 0 0 0 0 0 0 0 0 0 0 0 0 0 0 0 0 0 0 0 0 0 0 0 0 0 0 0 0 0 0
34 85 89 72 17 62 42 1 4 0 10 5 1 3 5 5 22 5 0 0 0 0 0 0 0 0 0 0 0 0 0 0 0 0 0 0 0 0 0 0 0 0 0 0
17 20 80 51 41 14 32 0 0 0 9 4 10 5 6 39 1 0 0 0 0 0 0 0 0 0 0 0 0 0 0 0 0 0 0 0 0 0 0 0 0 0 0 0
29 23 21 32 40 31 4 0 0 0 0 1 7 11 1 4 14 0 0 1 0 0 0 0 0 0 0 0 0 0 0 0 0 0 0 0 0 0 0 0 0 0 0 0
25 26 23 25 26 54 19 16 0 1 0 0 1 0 0 0 2 0 0 0 0 0 0 0 0 0 0 0 0 0 0 0 0 0 0 0 0 0 0 0 0 0 0 0
137 146 107 50 29 41 20 11 5 5 0 0 6 9 3 12 3 0 0 0 0 0 0 0 0 0 0 0 0 0 0 0 0 0 0 0 0 0 0 0 0 0 0 0
125 140 108 73 59 21 36 12 16 3 0 4 6 5 7 3 1 0 0 0 0 0 0 0 0 0 0 0 0 0 0 0 0 0 0 0 0 0 0 0 0 0 0 0
54 112 124 99 95 82 30 3 39 1 0 2 2 0 8 2 1 0 0 0 0 0 0 0 0 0 0 0 0 0 0 0 0 0 0 0 0 0 0 0 0 0 0 0
31 34 64 67 54 59 10 0 29 19 1 1 8 8 1 3 0 0 0 0 0 0 0 0 0 0 0 0 0 0 0 0 0 0 0 0 0 0 0 0 0 0 0 0
15 16 23 41 67 44 1 0 3 9 1 6 6 11 6 2 0 0 1 0 0 0 0 0 0 0 0 0 0 0 0 0 0 0 0 0 0 0 0 0 0 0 0 0
18 13 12 19 67 53 2 1 7 12 1 3 3 6 8 6 7 1 0 0 0 0 0 0 0 0 0 0 0 0 0 0 0 0 0 0 0 0 0 0 0 0 0 0
19 14 12 9 36 62 24 4 11 9 5 2 7 8 7 7 11 11 1 3 0 0 0 0 0 0 0 0 0 0 0 0 0 0 0 0 0 0 0 0 0 0 0 0
18 11 6 7 19 45 22 5 9 10 1 1 1 7 5 7 2 0 2 2 3 3 1 0 0 0 0 0 0 0 0 0 0 0 0 0 0 0 0 0 0 0 0 0
17 10 3 2 10 10 35 12 6 8 8 0 0 5 4 5 0 0 1 5 3 3 2 0 0 0 0 0 0 0 0 0 0 0 0 0 0 0 0 0 0 0 0 0
9 4 1 0 11 9 0 8 1 9 7 0 0 0 0 1 0 0 0 0 0 0 0 0 0 0 0 0 0 0 0 0 0 0 0 0 0 0 0 0 0 0 0 0
4 0 0 0 10 3 0 1 0 1 14 0 0 0 0 0 0 0 0 0 0 0 0 0 0 0 0 0 0 0 0 0 0 0 0 0 0 0 0 0 0 0 0 0
0 0 0 1 1 0 0 0 0 2 0 0 0 0 0 1 1 0 0 0 0 0 0 0 0 0 0 0 0 0 0 0 0 0 0 0 0 0 0 0 0 0 0 0
0 0 0 0 0 0 0 0 4 0 2 0 0 0 0 0 0 0 0 0 0 0 0 0 0 0 0 0 0 0 0 0 0 0 0 0 0 0 0 0 0 0 0 0
0 0 0 0 0 0 0 1 0 0 0 0 0 0 0 0 0 0 0 0 0 0 0 0 0 0 0 0 0 0 0 0 0 0 0 0 0 0 0 0 0 0 0 0
0 0 0 0 0 2 0 0 0 0 0 0 0 0 0 0 0 0 0 0 0 0 0 0 0 0 0 0 0 0 0 0 0 0 0 0 0 0 0 0 0 0 0 0
0 0 0 0 0 0 0 0 0 0 0 0 0 0 0 0 0 1 0 0 0 0 0 0 0 0 0 0 0 0 0 0 0 0 0 0 0 0 0 0 0 0 0 0
0 1 5 0 0 0 0 0 0 0 0 0 0 0 0 0 0 0 0 0 0 0 0 0 0 0 0 0 0 0 0 0 0 0 0 0 0 0 0 0 0 0 0 0
0 0 0 0 0 0 0 0 0 0 0 0 0 0 0 0 0 0 0 0 0 0 0 0 0 0 0 0 0 0 0 0 0 0 0 0 0 0 0 0 0 0 0 0
0 0 0 0 0 0 0 0 0 0 0 0 0 0 0 0 0 0 0 0 0 0 0 0 0 0 0 0 0 0 0 0 0 0 0 0 0 0 0 0 0 0 0 0
0 0 0 0 0 0 0 0 0 0 0 0 0 0 0 0 0 0 0 0 0 0 0 0 0 0 0 0 0 0 0 0 0 0 0 0 0 0 0 0 0 0 0 0
0 0 0 0 0 0 0 0 0 0 0 0 0 0 0 0 0 0 0 0 0 0 0 0 0 0 0 0 0 0 0 0 0 0 0 0 0 0 0 0 0 0 0 0
0 0 0 0 0 0 0 0 0 0 0 0 0 0 0 0 0 0 0 0 0 0 0 0 0 0 0 0 0 0 0 0 0 0 0 0 0 0 0 0 0 0 0 0
CIN
-3 0 -1 -3 0 0 -15 -2 0 0 -29 -4 0 0 0 0 0 0 0 0 0 0 0 0 0 0 0 0 0 0 0 0 0 0 0 0 0 0 0 0 0 0 0 0
0 -5 0 0 0 -3 -1 0 0 0 -2 0 -2 0 0 -1 -6 -4 0 0 0 0 0 0 0 0 0 0 0 0 0 0 0 0 0 0 0 0 0 0 0 0 0 0
0 -1 -5 -9 -1 0 -4 0 0 0 0 0 0 0 0 0 -2 0 0 0 0 0 0 0 0 0 0 0 0 0 0 0 0 0 0 0 0 0 0 0 0 0 0 0
0 0 0 0 -1 0 -4 0 0 0 0 0 0 0 0 0 -1 0 -2 -12 0 0 0 0 0 0 0 0 0 0 0 0 0 0 0 0 0 0 0 0 0 0 0 0
-1 -1 0 0 0 -5 -7 -2 0 0 0 0 0 0 0 0 0 0 0 -3 0 0 0 0 0 0 0 0 0 0 0 0 0 0 0 0 0 0 0 0 0 0 0 0
0 0 0 0 0 -2 -8 -6 0 0 0 0 0 0 0 0 -1 0 0 0 0 0 0 0 0 0 0 0 0 0 0 0 0 0 0 0 0 0 0 0 0 0 0 0
0 0 0 0 0 -1 -3 -8 -1 0 0 0 0 0 0 0 0 0 0 0 0 0 0 0 0 0 0 0 0 0 0 0 0 0 0 0 0 0 0 0 0 0 0 0
0 0 0 0 0 0 -7 -10 0 0 0 -1 0 0 0 0 0 0 0 0 0 0 0 0 0 0 0 0 0 0 0 0 0 0 0 0 0 0 0 0 0 0 0 0
0 0 0 0 0 0 -5 0 -1 0 0 0 0 0 0 0 0 0 0 0 0 0 0 0 0 0 0 0 0 0 0 0 0 0 0 0 0 0 0 0 0 0 0 0
0 0 0 0 0 0 -1 -2 -6 0 0 0 0 0 0 0 0 0 0 0 0 0 0 0 0 0 0 0 0 0 0 0 0 0 0 0 0 0 0 0 0 0 0 0
0 0 0 0 0 0 -5 -7 -12 0 0 0 0 0 0 0 0 0 0 0 0 0 0 0 0 0 0 0 0 0 0 0 0 0 0 0 0 0 0 0 0 0 0 0
0 0 0 0 -2 0 -1 -2 -1 0 0 0 0 0 0 0 0 0 0 0 0 0 0 0 0 0 0 0 0 0 0 0 0 0 0 0 0 0 0 0 0 0 0 0
0 0 0 0 0 0 -2 -2 0 0 0 0 0 0 0 0 0 0 0 0 0 0 0 0 0 0 0 0 0 0 0 0 0 0 0 0 0 0 0 0 0 0 0 0
0 0 0 0 0 0 -1 -1 0 0 0 0 0 0 0 0 0 0 0 0 0 0 0 0 0 0 0 0 0 0 0 0 0 0 0 0 0 0 0 0 0 0 0 0
0 0 0 0 0 0 -2 -1 -1 0 0 0 0 0 0 0 0 0 0 0 0 0 0 0 0 0 0 0 0 0 0 0 0 0 0 0 0 0 0 0 0 0 0 0
0 0 0 0 0 0 0 0 0 -1 0 0 0 0 0 0 0 0 0 0 0 0 0 0 0 0 0 0 0 0 0 0 0 0 0 0 0 0 0 0 0 0 0 0
0 0 0 0 0 0 0 0 -1 -2 0 0 0 0 0 0 0 0 0 0 0 0 0 0 0 0 0 0 0 0 0 0 0 0 0 0 0 0 0 0 0 0 0 0
0 0 0 0 0 0 0 0 -1 0 0 0 0 0 0 0 0 0 0 0 0 0 0 0 0 0 0 0 0 0 0 0 0 0 0 0 0 0 0 0 0 0 0 0
0 0 0 0 0 0 0 0 0 0 0 0 0 0 0 0 0 0 0 0 0 0 0 0 0 0 0 0 0 0 0 0 0 0 0 0 0 0 0 0 0 0 0 0
0 0 0 0 0 0 0 0 0 0 0 0 0 0 0 0 0 0 0 0 0 0 0 0 0 0 0 0 0 0 0 0 0 0 0 0 0 0 0 0 0 0 0 0
0 0 0 0 0 0 0 0 0 0 0 0 0 0 0 0 0 0 0 0 0 0 0 0 0 0 0 0 0 0 0 0 0 0 0 0 0 0 0 0 0 0 0 0
0 0 0 0 0 0 0 0 0 0 0 0 0 0 0 0 0 0 0 0 0 0 0 0 0 0 0 0 0 0 0 0 0 0 0 0 0 0 0 0 0 0 0 0
0 0 0 0 0 0 0 0 0 0 0 0 0 0 0 0 0 0 0 0 0 0 0 0 0 0 0 0 0 0 0 0 0 0 0 0 0 0 0 0 0 0 0 0
0 0 0 0 0 0 0 0 0 0 0 0 0 0 0 0 0 0 0 0 0 0 0 0 0 0 0 0 0 0 0 0 0 0 0 0 0 0 0 0 0 0 0 0
0 0 0 0 0 0 0 0 0 0 0 0 0 0 0 0 0 0 0 0 0 0 0 0 0 0 0 0 0 0 0 0 0 0 0 0 0 0 0 0 0 0 0 0
0 0 0 0 0 0 0 0 0 0 0 0 0 0 0 0 0 0 0 0 0 0 0 0 0 0 0 0 0 0 0 0 0 0 0 0 0 0 0 0 0 0 0 0
0 0 0 0 0 0 0 0 0 0 0 0 0 0 0 0 0 0 0 0 0 0 0 0 0 0 0 0 0 0 0 0 0 0 0 0 0 0 0 0 0 0 0 0
Wind_Speed
25 24 22 23 22 23 5 3 4 2 6 4 3 7 6 5 9 12 10 3 5 9 18 10 11 14 16 13 17 13 6 7 5 6 1 1 1 6 6 7 5 1 3 8
26 24 25 23 22 22 6 2 4 0 3 4 4 4 7 6 5 9 8 7 4 4 10 7 4 13 1 9 18 22 12 4 5 4 4 3 4 5 5 5 4 8 8 6
25 25 25 24 23 21 6 2 4 4 3 2 4 5 13 9 9 9 8 6 3 5 5 3 12 5 2 2 8 6 10 4 11 14 6 9 7 6 5 6 4 5 8 4
23 23 25 25 24 22 3 1 4 2 6 3 8 4 6 10 9 11 10 4 13 7 6 4 5 4 4 4 4 4 7 8 5 2 6 5 7 12 15 13 17 10 9 11
23 23 22 23 22 23 1 2 3 2 6 9 10 10 6 14 14 14 8 8 5 5 9 10 10 11 6 8 3 5 2 4 4 2 4 5 5 7 19 24 13 2 6 4
26 22 21 20 20 16 2 1 2 3 6 4 7 2 4 8 10 5 4 9 7 4 4 2 6 4 7 10 12 5 7 7 4 4 1 5 3 11 13 7 5 14 10 8
30 28 25 22 20 15 1 2 3 3 7 5 7 10 16 17 14 6 1 1 7 2 12 13 13 15 16 13 9 3 11 7 3 4 0 3 5 1 2 7 3 5 5 6
32 31 27 26 24 19 2 2 3 3 6 7 10 16 7 10 3 2 3 2 1 14 3 6 6 4 5 6 7 6 1 7 5 6 4 4 2 5 8 10 8 7 9 9
31 32 31 28 25 23 3 3 2 3 5 2 10 9 7 3 3 3 3 6 7 2 3 4 5 6 5 6 3 6 3 6 6 3 6 9 4 1 2 3 4 10 12 17
29 29 29 30 26 22 7 3 4 4 4 2 5 5 7 7 4 2 4 4 0 5 2 3 3 2 0 7 11 7 4 3 6 4 2 7 4 4 2 7 7 11 14 17
29 28 28 29 28 24 7 4 2 4 3 3 3 3 4 6 5 2 2 3 1 2 3 3 2 3 4 4 1 6 8 9 4 4 2 10 5 4 8 2 5 9 12 10
28 28 28 28 28 22 11 3 6 7 3 3 2 3 2 5 6 4 2 3 2 2 4 2 3 3 2 1 3 2 2 2 6 3 4 2 4 2 3 4 10 7 12 15
29 28 28 27 27 24 8 3 7 3 2 2 3 4 5 8 9 7 2 2 2 2 1 3 2 3 4 4 3 5 1 2 4 4 3 4 6 6 6 7 14 15 16 17
31 29 28 26 24 21 13 2 5 2 3 3 2 3 5 13 11 5 4 4 3 3 2 3 3 4 1 2 4 4 2 3 5 5 3 8 8 8 6 13 17 16 12 13
31 30 28 25 22 20 6 1 2 6 2 3 3 5 6 13 12 10 9 6 4 2 3 3 3 2 2 1 3 3 4 3 1 3 9 3 5 5 8 15 13 13 19 15
33 30 27 22 19 16 1 1 1 7 3 2 3 2 5 9 9 8 8 4 3 3 3 3 3 2 2 3 3 4 5 5 4 1 11 16 12 13 12 17 14 14 17 14
35 30 24 20 12 3 3 4 4 16 2 1 3 3 4 7 4 3 4 4 2 3 3 3 2 4 4 3 4 5 6 7 8 11 15 14 10 9 12 17 17 19 16 13
36 27 20 9 7 4 2 2 18 7 1 3 2 4 3 9 4 4 4 4 3 6 2 2 4 2 3 6 4 3 4 7 13 11 16 16 15 14 14 13 13 16 12 9
31 25 8 4 6 5 4 23 8 3 4 4 3 5 4 7 4 3 3 3 4 2 3 3 2 5 7 5 4 5 7 6 10 14 17 15 16 13 12 12 12 14 9 8
23 8 6 5 2 20 11 7 6 8 6 5 3 4 3 4 4 4 4 3 3 3 3 2 5 4 3 6 5 5 7 7 5 16 13 12 12 11 11 11 8 8 7 6
6 6 3 5 13 4 6 6 7 5 6 6 5 3 4 3 3 3 4 2 2 3 3 2 3 3 2 5 7 7 9 10 12 11 11 11 10 10 10 8 8 7 7 4
6 8 4 5 8 6 9 4 6 6 5 7 5 6 4 4 3 2 4 2 2 2 3 3 3 2 4 5 7 8 9 11 13 11 12 10 11 8 8 7 6 5 3 3
4 6 7 6 6 14 9 10 6 6 6 5 7 8 3 5 4 2 3 5 2 3 5 3 2 5 5 5 6 8 7 8 10 10 10 9 9 8 6 6 4 3 4 3
6 6 10 6 6 3 2 2 4 4 5 10 9 5 2 2 5 1 5 2 2 4 4 1 2 4 5 5 4 6 5 7 8 8 7 8 7 5 5 4 2 2 3 4
5 6 4 2 4 3 2 2 4 3 5 7 6 5 1 3 3 3 2 7 3 1 1 1 3 6 6 6 6 5 5 5 5 3 4 5 5 4 3 4 4 3 3 4
6 7 4 3 3 4 4 2 4 3 8 5 4 4 2 2 1 5 2 4 1 2 1 2 5 4 6 6 5 5 4 4 4 3 3 3 3 2 1 4 2 2 3 4
5 2 1 2 1 4 3 1 3 4 4 3 4 4 3 3 2 3 3 3 2 2 3 4 5 5 5 4 5 5 4 4 3 1 2 2 1 1 3 4 3 4 5 4
Wind_Direction
3 1 359 356 354 349 11 278 268 254 138 217 228 210 203 235 209 214 250 199 139 170 169 160 179 185 205 177 158 182 181 117 147 202 292 325 172 177 145 130 207 133 139 262
355 0 357 355 351 349 330 258 266 58 148 241 239 247 266 259 231 190 205 243 211 179 164 161 162 192 192 152 175 178 172 182 100 12 353 359 210 193 156 120 97 193 149 246
351 349 354 353 350 344 340 277 302 292 195 197 242 267 262 239 235 240 200 201 154 123 147 24 174 139 161 159 185 120 145 133 196 207 193 137 187 189 171 129 154 178 222 177
345 347 346 348 346 341 351 131 260 264 300 297 261 256 298 264 219 211 179 215 201 169 134 112 146 111 117 51 153 84 148 182 138 125 140 135 171 175 173 194 215 188 216 193
348 345 340 342 344 344 174 323 298 275 267 287 271 257 229 220 218 187 227 170 166 138 166 186 182 141 164 173 188 139 62 170 115 103 154 142 171 188 193 206 208 234 138 241
355 344 345 349 347 360 320 209 261 250 262 271 275 263 282 282 190 273 200 142 119 136 218 143 126 99 101 151 148 133 123 126 113 222 73 108 325 210 188 188 183 199 195 196
2 4 358 354 351 355 274 275 263 268 274 266 281 285 295 277 208 191 123 220 120 185 137 107 67 70 71 58 35 100 143 118 86 136 101 169 246 341 213 158 179 142 98 155
360 0 2 4 3 349 281 268 289 278 278 281 291 304 282 271 130 98 131 353 328 150 139 84 91 10 55 22 16 14 134 124 102 144 196 289 324 204 165 168 226 183 135 120
355 353 354 359 1 1 339 266 266 278 292 320 310 302 326 346 115 87 65 24 69 207 85 88 133 177 153 159 47 4 39 77 111 145 144 208 237 207 242 189 295 170 145 150
353 352 348 347 349 353 350 295 37 291 268 311 338 337 323 332 330 82 108 152 339 30 60 81 125 188 155 150 160 165 98 48 156 156 181 281 218 168 241 142 234 159 153 155
348 349 347 342 340 350 2 274 1 304 277 291 322 332 332 332 346 334 148 120 69 67 116 123 166 122 204 101 159 165 153 143 180 104 151 259 157 74 167 180 26 128 131 130
345 345 343 341 334 347 359 306 327 308 238 296 290 310 328 317 300 298 357 345 102 115 95 106 112 133 78 78 210 12 188 192 165 159 180 43 20 21 125 130 125 109 108 120
343 342 341 338 332 337 3 306 345 319 313 266 358 332 308 299 318 262 299 62 40 65 51 126 117 136 110 151 229 91 36 313 98 135 36 44 11 22 73 113 114 115 122 126
340 339 338 335 328 332 345 323 10 331 300 303 315 305 0 315 335 31 39 99 70 85 46 87 108 115 192 158 113 99 5 324 116 75 55 93 38 27 92 96 96 96 90 118
337 336 335 333 328 329 336 194 79 23 330 306 310 310 346 348 355 26 29 44 57 49 79 62 76 78 114 56 93 61 351 357 205 175 147 65 105 49 85 88 91 103 109 91
336 334 332 331 330 335 4 342 334 3 347 308 327 282 331 346 346 11 17 11 35 58 72 70 75 48 55 82 77 21 2 329 262 69 86 93 94 72 76 92 87 83 85 87
335 334 333 330 337 21 81 165 298 334 298 0 337 349 1 330 333 351 351 356 45 57 71 48 61 37 32 53 69 14 12 15 65 97 104 79 37 88 78 86 87 84 78 73
334 332 332 345 11 28 12 328 335 337 75 56 27 331 353 3 350 338 355 355 18 22 67 43 34 50 62 76 35 15 24 52 50 62 71 93 105 88 80 83 90 84 81 81
334 330 341 33 32 14 294 313 345 337 75 87 47 358 333 345 353 336 344 6 45 311 58 49 36 11 46 12 15 18 10 77 108 87 86 88 86 87 82 86 83 92 89 84
337 8 31 0 290 310 319 9 23 16 344 25 47 319 325 335 321 4 349 13 26 43 33 3 57 76 68 6 9 23 23 37 68 98 93 97 90 90 82 78 76 83 90 86
13 16 357 261 325 28 27 34 48 333 22 7 335 1 318 358 349 346 19 360 354 57 334 45 86 82 33 12 40 36 47 58 62 76 79 76 94 105 100 85 79 78 78 75
280 282 313 353 23 24 56 4 345 29 18 334 332 324 312 302 333 337 356 13 7 63 334 65 74 67 106 73 61 54 56 65 68 68 81 82 86 88 94 85 81 75 83 72
18 31 40 31 320 37 45 353 336 334 344 355 332 319 315 328 31 30 6 45 33 304 31 61 72 118 103 100 92 72 59 73 81 82 82 83 80 71 71 86 65 65 48 33
59 45 19 66 2 36 17 304 294 307 314 323 315 271 297 326 15 345 66 310 25 48 44 51 154 126 117 108 101 101 78 73 74 71 72 71 73 72 71 72 53 49 24 1
55 51 43 37 234 268 265 272 310 338 308 314 297 274 223 322 32 34 51 24 11 175 173 61 131 124 117 110 106 102 95 86 79 72 76 69 59 62 40 12 356 359 335 332
60 42 41 286 47 307 345 335 287 317 317 285 230 272 313 2 4 42 31 94 219 291 15 76 107 93 95 100 93 90 92 83 77 53 50 79 68 67 343 319 1 335 289 294
57 317 319 145 196 215 252 237 269 317 344 355 309 322 1 290 38 47 11 38 9 79 88 72 83 101 103 98 98 101 111 106 113 112 66 106 82 59 36 16 309 305 296 265